CZ-4 DEB

Satellite information

Favourite Embed

Satellite Type and Status

DEBRISIN ORBIT

Key statistics

Satellite CZ-4 DEB at a glance.

Uptime

9398

Days in orbit

Revolutions

≈ 14.7

Per day

Orbit

SSO

Sun Synchronous Orbit

Inclination

98.4

Latest

Satellite identification and parameters

Extended collection of information and parameters for CZ-4 DEB.

Object identification

Identified? True

Debris? True

Object name: CZ-4 DEB

International designator: 1999-057GL

Object number (NORAD): 26300

Object ID (CCSDS): 26300

Country: PEOPLES REPUBLIC OF CHINA (PRC)

Current information (Y/N): Y

RCS size: SMALL

Orbital parameters

Period: 98.224 minutes

Inclination: 98.3967 deg

SMA: 7051.876 km

Apoapsis: 717.015 km

Periapsis: 630.466 km

RAAN: 244.784 deg

Eccentricy: 0.0061366

Argument of periapsis: 251.2136 deg

Mean anomaly: 260.8729 deg

Mean motion: 14.66039888 rev/day

Mean motion (dot): 0.00002578 rev/day2

B* drag term: 0.00046683 1/REarth

Two-line elements (TLE)

Creation date: July 6, 2025, 6:05 p.m.

Reference frame: TEME

Reference center: EARTH

Epoch: July 6, 2025, 3:27 p.m. UTC

TLE line 0: 0 CZ-4 DEB

TLE line 1: 1 26300U 99057GL 25187.64408183 .00002578 00000-0 46683-3 0 9990

TLE line 2: 2 26300 98.3967 244.7840 0061366 251.2136 260.8729 14.66039888335431

Live tracking on map

Real-time ground track for satellite CZ-4 DEB.

In-orbit conjunctions

A list of the most updated potential collisions computed for object CZ-4 DEB.

Target Orbit TCA Probability of collision Miss distance Type
COSMOS 374 DEB MEO 2025-02-17 09:59:00 0.001288744 52.0 (m) DEBRIS
MAGION 2 HEO 2024-11-26 14:50:56 0.0001699514 69.0 (m) PAYLOAD
THORAD AGENA D DEB SSO 2024-06-25 01:48:09 0.0005254622 48.0 (m) DEBRIS

Associated space launch

The CBERS (China Brazil Earth Resources Satellite) or ZY 1 (Zi Yuan) satellites are designed for global coverage and include cameras to make optical observations and a data collecting system to gather data on the environment. They are unique systems due to the use of on-board sensors which combine features that are especially designed to resolve the broad range of space and time scales involved in the monitoring and preservation of the ecosystem. They are operated jointly by the China Centre for Resources Satellite Data and Application (CRESDA) and the Brazilian INPE (Instituto Nacional de Pesquisas Espaciais, National Institute of Space Research).

CZ-4 DEB was lifted into orbit during the mission ‘Long March 4B | Zi Yuan 1-1’, on board a Long March 4B space rocket.

The launch took place on Oct. 14, 1999, 3:15 a.m. from Launch Complex 7.

For more information about the launch, click the button.

Launch to space Long March 4B | Zi Yuan 1-1
Long March 4B | Zi Yuan 1-1

Agency: N/A

Status: Launch Successful

Launch date: Oct. 14, 1999, 3:15 a.m. UTC

Rocket: Long March 4B

Launch pad: Launch Complex 7

Location: Taiyuan Satellite Launch Center, People's Republic of China

...

Latest news about this satellite

There are no fresh news available about this satellite. Check back as we update our databases every day.


Newsletter sign-up

Weekly statistics, charts and insights to help you stay on top of the space industry.